Location: Hogebeintum
(53.3378°N, 5.8517°E)
Time: 00:23:48
(UTC+00:00)

Daily predictions for brighter satellites

Satellite Brightness Start Highest point End
(mag) Time Altitude Azimuth Time Altitude Azimuth Time Altitude Azimuth
SL-16 R/B 4.0 00:24:54 32° NE 00:24:54 32° NE 00:30:02 10° N
Cosmos 2360 Rocket 4.3 00:21:25 10° NNW 00:23:33 22° NNW 00:23:33 22° NNW
CZ-2D R/B 4.4 00:27:58 10° NE 00:30:15 19° ENE 00:30:15 19° ENE
Cosmos 1833 Rocket 4.5 00:48:30 27° N 00:48:30 27° N 00:51:22 10° NNE
Cosmos 2082 Rocket 3.8 00:50:59 31° NNE 00:50:59 31° NNE 00:53:53 10° NNE
Cosmos 2333 Rocket 4.2 00:52:49 10° NNW 00:54:48 22° NNW 00:54:48 22° NNW
COSMOS 2428 4.5 00:57:32 10° NNW 01:02:26 28° NE 01:07:20 10° E
ATLAS 5 CENTAUR R/B 4.4 01:05:49 14° NE 01:05:49 14° NE 01:06:35 10° NE
Cosmos 2219 Rocket 3.9 01:06:15 10° NNW 01:09:04 27° N 01:09:04 27° N
ATLAS 3B R/B 4.2 01:09:15 10° NW 01:27:31 - SE 01:12:35 29° NW
USA 215 3.7 01:11:02 10° E 01:16:10 56° ENE 01:16:10 56° ENE
ATLAS 2AS CENTAUR R/B 3.2 01:22:05 58° E 01:22:05 58° E 01:28:09 10° NE
USA 229 DEB 4.3 01:32:34 10° NW 01:39:37 60° NNE 01:47:20 10° ESE
USA 229 4.3 01:32:40 10° NW 01:39:42 59° NNE 01:47:24 10° ESE
Resurs 1-4 Rocket 3.1 01:40:07 10° NNE 01:43:37 43° NNE 01:43:37 43° NNE
S3M 4.2 01:40:26 10° N 01:46:24 68° NE 01:46:24 68° NE
NOSS 3-4 (A) 4.4 01:47:57 37° NNW 01:48:27 38° NNW 01:54:37 10° NE
NOSS 3-4 (C) 4.4 01:48:03 37° NNW 01:48:32 38° NNW 01:54:43 10° NE
NOSS 3-1 (A) 3.8 01:55:41 81° WNW 01:56:04 85° SW 02:04:41 10° SE
NPP 4.4 01:50:57 10° NNE 01:54:49 48° N 01:54:49 48° N
ATLAS CENTAUR R/B 4.0 01:59:19 15° NNE 01:59:19 15° NNE 02:00:43 10° NE
USA 281 3.4 01:59:56 10° NNE 02:06:26 59° ESE 02:07:16 55° SE
ADEOS II 2.6 02:02:22 10° NNE 02:06:36 58° NNE 02:06:36 58° NNE
SL-16 R/B 3.2 02:10:01 42° NW 02:10:01 42° NW 02:14:06 10° NNW
Cosmos 2266 Rocket 4.2 02:09:14 64° SE 02:09:54 69° E 02:16:17 10° NNE
Cosmos 2315 Rocket 4.2 02:05:04 10° N 02:11:27 70° ENE 02:13:09 50° SE
CZ-2D R/B 2.7 02:07:27 10° NNE 02:11:32 49° N 02:11:32 49° N
CZ-2C R/B 3.2 02:19:07 47° NNW 02:19:07 47° NNW 02:22:53 10° NNW
MSX 3.9 02:12:09 10° NNE 02:17:13 67° NNW 02:17:13 67° NNW
IDEFIX/ARIANE 42P 3.3 02:15:59 10° N 02:19:53 45° NNW 02:19:53 45° NNW
Cosmos 292 Rocket 4.3 02:23:49 56° NE 02:23:49 56° NE 02:27:42 10° NNE
Cosmos 2237 Rocket 3.5 02:18:52 10° NNW 02:24:11 38° NE 02:29:29 10° ESE
Cosmos 2221 3.7 02:26:56 38° NNE 02:26:56 38° NNE 02:29:41 10° NNE
CZ-4 R/B 4.1 02:25:17 10° NNE 02:29:31 64° ENE 02:29:31 64° ENE
Lacrosse 5 rocket 3.0 02:31:30 29° E 02:31:30 29° E 02:33:45 10° ENE
Lacrosse 4 Rocket 3.5 02:33:06 21° NNW 02:33:06 21° NNW 02:35:42 10° NNE
Cosmos 2082 Rocket 3.6 02:32:50 26° NW 02:33:02 26° NW 02:37:47 10° NNE
SL-16 R/B 4.4 02:28:37 10° NNW 02:33:07 23° NNE 02:37:37 10° E
ATLAS CENTAUR R/B 3.5 02:34:11 58° WSW 02:36:01 85° NNW 02:49:00 10° ENE
Cosmos 2322 4.4 02:33:02 10° NNW 02:43:22 16° SSE 02:44:27 10° SSE
Cosmos 1500 Rocket 4.2 02:34:32 10° N 02:38:52 54° ENE 02:39:12 52° E
FENGYUN 3A 3.5 02:39:09 10° NNE 02:44:34 86° WNW 02:44:55 79° SW
NOSS 0 Rocket 4.1 02:39:40 10° NNW 02:45:58 75° NE 02:52:13 10° SE
COSMOS 2428 2.5 02:41:38 10° NNW 02:47:22 83° WSW 02:53:04 10° SSE
ATLAS 5 CENTAUR R/B 3.3 02:46:58 21° NNW 02:47:48 23° N 02:51:33 10° NE
SL-27 R/B 4.4 02:50:53 24° NE 02:50:53 24° NE 02:52:21 10° NNE
Timation 1 Rocket 4.2 02:49:01 65° SSW 02:49:59 89° ESE 02:56:01 10° NE
Cosmos 44 4.4 02:49:57 35° NW 02:50:28 35° NNW 02:55:27 10° NE
CZ-2C R/B 3.3 02:49:54 10° NNE 02:54:29 44° E 02:56:49 25° SSE
Cosmos 2219 Rocket 4.4 02:50:19 10° NW 02:50:41 12° NW 02:50:41 12° NW
ALOS 2.1 02:51:33 10° NNE 02:56:14 89° WNW 02:56:20 86° SSW
Cosmos 1937 Rocket 4.5 02:59:26 32° NW 02:59:26 32° NW 03:03:54 10° NNE
USA 215 3.1 02:54:07 10° SE 03:00:39 70° SSW 03:03:31 36° WNW
Cosmos 1842 Rocket 3.6 03:09:34 66° WNW 03:09:34 66° WNW 03:13:51 10° N
Cosmos 2084 Rocket 3.5 03:11:36 58° NNW 03:11:36 58° NNW 03:15:14 10° NE
ATLAS 2AS CENTAUR R/B 3.2 03:09:31 36° W 03:12:16 54° NNW 03:19:13 10° NE
Meteor 1-26 Rocket 4.4 03:11:33 50° W 03:12:20 53° WNW 03:17:53 10° N
Cosmos 1655 Rocket 4.1 03:13:15 43° SW 03:15:09 60° WNW 03:21:29 10° N
Cosmos 1833 4.3 03:14:15 49° W 03:15:23 59° NW 03:20:58 10° NNE
CZ-2C R/B 3.2 03:11:51 10° NNE 03:17:37 77° WNW 03:19:54 38° SSW
SL-08 ROCKET BODY 4.4 03:16:47 42° SW 03:18:39 60° WNW 03:24:40 10° N
Cosmos 2150 Rocket 4.4 03:16:29 25° S 03:19:31 62° ESE 03:24:42 10° NNE
Thor Agena Rocket 3.6 03:14:57 10° N 03:20:10 61° WNW 03:21:27 47° WSW
Resurs 1-4 Rocket 3.5 03:20:45 10° N 03:24:40 22° NW 03:24:40 22° NW
Helios 1A 4.1 03:21:58 10° SE 03:25:51 44° ENE 03:29:45 10° N
Cosmos 1743 Rocket 3.4 03:21:40 10° NNW 03:26:00 69° W 03:27:40 36° S
Meteor 1-11 Rocket 3.7 03:21:08 10° NNW 03:27:03 84° W 03:33:01 10° S
Cosmos 614 Rocket 4.1 03:22:02 10° NNW 03:27:12 75° ENE 03:32:22 10° SSE
Cosmos 1805 Rocket 3.4 03:24:03 10° NNW 03:28:24 69° W 03:30:45 26° S
Cosmos 1980 3.6 03:24:46 10° NNW 03:30:29 88° WSW 03:36:09 10° SSE
USA 229 DEB 4.0 03:23:36 10° NW 03:30:45 57° SW 03:38:29 10° SSE
USA 229 4.0 03:23:42 10° NW 03:30:51 57° SW 03:38:34 10° SSE
Cosmos 1633 Rocket 4.0 03:30:16 10° N 03:34:33 48° ENE 03:38:49 10° SSE
Sich 1 2.9 03:32:55 10° NNW 03:37:12 61° W 03:41:10 12° S
ATLAS CENTAUR R/B 2.4 03:34:45 15° NNW 03:37:26 38° NE 03:40:48 10° ESE
Meteor 2-9 Rocket 4.4 03:33:37 10° NNW 03:39:31 81° ENE 03:45:18 10° SSE
Cosmos 1484 Rocket 3.9 03:36:13 10° NNE 03:39:40 39° E 03:43:06 10° S
NOAA 11 4.5 03:34:40 10° NNE 03:40:11 68° ESE 03:45:38 10° S
Meteor 2-6 Rocket 4.1 03:38:04 32° SW 03:40:28 59° WNW 03:45:50 10° N
H-2A R/B 4.5 03:36:23 10° NE 03:40:50 25° E 03:45:13 10° SE
GP-B 3.0 03:38:17 17° S 03:41:39 72° W 03:46:06 10° N
YAOGAN 6 2.3 03:41:01 10° NNE 03:44:27 84° WNW 03:45:34 40° SSW
Cosmos 1244 Rocket 4.4 03:39:43 12° SSW 03:45:39 75° WNW 03:52:02 10° N
BlueWalker 3 4.2 03:48:24 13° S 03:48:24 13° S 03:49:03 10° S
ADEOS II 3.4 03:42:48 10° N 03:46:46 22° NW 03:47:29 22° WNW
Meteor 1-10 Rocket 4.1 03:44:44 14° SSW 03:49:35 77° WNW 03:55:10 10° NNE
USA 281 3.7 03:44:41 10° NNE 03:50:47 43° NW 03:54:08 25° W
IRS-1D 3.6 03:45:38 10° N 03:50:52 58° WNW 03:54:06 23° SW
CZ-2D R/B 3.8 03:48:44 10° NNW 03:51:56 16° NW 03:52:50 16° WNW
SL-16 R/B 4.4 03:55:06 12° WNW 03:55:06 12° WNW 03:55:51 10° NW
Envisat 2.9 03:48:04 10° NNE 03:53:10 75° WNW 03:57:47 13° SSW
CZ-2C R/B 4.4 04:00:38 14° WNW 04:00:38 14° WNW 04:01:57 10° NW
IDEFIX/ARIANE 42P 4.4 03:57:04 10° NNW 03:59:43 14° NW 04:00:39 13° WNW
TIMED 4.4 03:58:24 20° SSW 04:01:22 81° WNW 04:05:45 10° NNE
Cosmos 2297 Rocket 2.8 03:56:41 10° SSW 04:02:12 59° ESE 04:07:46 10° NE
Cosmos 2221 4.4 04:03:39 15° NW 04:03:39 15° NW 04:05:55 10° NNW
Cosmos 1536 3.3 04:01:36 10° NNW 04:05:09 34° W 04:07:16 20° SW
Cosmos 2237 Rocket 2.3 04:02:57 10° NW 04:08:30 54° WSW 04:13:59 10° S
Lacrosse 5 rocket 1.3 04:06:40 28° W 04:08:36 64° NNW 04:12:25 10° ENE
Cosmos 1125 Rocket 3.9 04:06:14 23° WSW 04:09:08 45° NW 04:14:08 10° NNE
METEOR-M 4.4 04:04:37 10° N 04:09:45 48° WNW 04:13:57 15° SW
Cosmos 1470 Rocket 3.9 04:06:56 10° N 04:11:25 69° ENE 04:15:52 10° SSE
Lacrosse 4 Rocket 3.9 04:10:31 10° NNW 04:12:20 12° N 04:14:09 10° NNE
Meteor 2-10 4.0 04:08:30 10° NNW 04:13:51 88° ENE 04:19:00 10° SSE
SL-16 R/B 2.5 04:12:31 10° NNW 04:18:15 73° NE 04:23:56 10° SE
Cosmos 2082 Rocket 4.4 04:16:23 10° NW 04:19:14 14° N 04:22:06 10° NNE
Okean 1 3.1 04:17:07 10° SSW 04:20:55 64° WNW 04:24:47 10° N
Cosmos 1726 1.8 04:17:55 10° NNW 04:21:22 77° W 04:24:47 10° S
Cosmos 1378 4.3 04:21:28 20° WNW 04:21:52 21° WNW 04:24:37 10° NNW
H-2A R/B 2.7 04:18:26 10° NNE 04:21:57 71° ESE 04:25:25 10° S
ERS-2 3.4 04:20:24 10° NNE 04:23:22 36° E 04:26:18 10° S
SL-27 R/B 4.3 04:23:28 13° NW 04:23:42 14° NW 04:25:25 10° NNW
Cosmos 1975 2.9 04:19:51 10° N 04:23:49 82° ENE 04:27:48 10° SSE
SL-08 R/B 3.8 04:19:10 10° SSE 04:23:57 68° ENE 04:28:50 10° NNW
COBE Rocket 4.1 04:20:57 10° N 04:25:37 51° WNW 04:30:23 10° SW
PAYLOAD A 4.5 04:23:10 10° N 04:27:41 38° WNW 04:32:19 10° SW
IRS-1C 4.3 04:23:51 10° NNE 04:29:14 78° ESE 04:34:34 10° SSW
Nadezhda 1 Rocket 4.2 04:24:04 10° NNW 04:30:05 48° W 04:35:59 10° SSW
COSMOS 2428 4.0 04:27:09 10° WNW 04:30:47 18° W 04:34:24 10° SW
CBERS-1 4.2 04:26:20 10° N 04:31:20 54° WNW 04:36:18 10° SW
Cosmos 2344 4.4 04:24:46 10° SSW 04:31:53 49° ESE 04:39:03 10° NE
CZ-2C R/B 3.1 04:28:21 10° N 04:32:32 31° WNW 04:36:09 12° WSW
ALOS 3.9 04:29:55 10° NNW 04:32:54 17° NW 04:34:42 14° W
ATLAS 5 CENTAUR R/B 3.3 04:29:08 10° NW 04:33:10 32° NNE 04:37:58 10° E
Cosmos 1151 Rocket 3.5 04:32:45 10° SW 04:36:53 40° WNW 04:41:03 10° N
Cosmos 407 Rocket 4.0 04:34:47 10° NNW 04:40:09 67° ENE 04:45:28 10° SE
Cosmos 1733 3.1 04:37:21 10° NNW 04:41:00 58° W 04:44:37 10° S
Cosmos 1666 Rocket 4.2 04:39:36 10° NNW 04:43:34 34° W 04:47:29 10° SSW
USA 215 4.2 04:39:02 10° S 04:44:27 27° SW 04:49:53 10° WNW
ARIANE 5 R/B 2.5 04:39:34 10° NNE 04:44:39 87° WNW 04:49:38 10° SSW
Cosmos 1515 Rocket 3.9 04:40:36 10° S 04:44:58 70° E 04:49:20 10° NNE
Helios 1B rocket 4.4 04:42:27 10° NNE 04:46:05 32° E 04:49:40 10° SSE
BREEZE-M DEB (TANK) 4.5 04:42:21 10° WSW 04:46:39 64° SSE 05:07:32 10° E
Cosmos 1328 Rocket 3.6 04:43:35 10° SSW 04:47:57 60° WNW 04:52:19 10° N
Cosmos 2227 Rocket 2.5 04:43:20 10° SSW 04:48:59 75° ESE 04:54:41 10° NE
COSMO-SKYMED 1 2.5 04:45:03 10° S 04:49:23 75° WSW 04:53:46 10° NNW
Cosmos 1933 Rocket 3.5 04:45:21 10° N 04:49:43 89° E 04:54:03 10° S
Cosmos 44 Rocket 3.4 04:44:53 10° SW 04:49:59 81° NW 04:55:14 10° NE
Genesis I 3.0 04:47:41 10° NW 04:51:24 67° SW 04:55:03 10° SSE
Cosmos 2263 Rocket 4.3 04:47:19 10° SSE 04:52:11 31° ESE 04:57:02 10° NE
CZ-2D R/B 3.6 04:50:40 10° NNE 04:55:02 89° NW 04:59:24 10° SSW
NOSS 2-1 (C) 4.3 04:52:40 10° NW 04:56:13 49° NE 05:00:54 10° ESE
Meteor 1-27 Rocket 4.2 04:51:03 10° SW 04:56:21 40° WNW 05:01:48 10° N
NOSS 2-1 (D) 4.2 04:54:41 10° NW 04:58:14 50° NE 05:02:56 10° ESE
Helios 1A 4.0 04:57:58 10° SSW 05:01:20 24° W 05:04:41 10° NW
IRS-P3 4.1 04:58:02 10° NNE 05:03:23 72° WNW 05:08:41 10° SSW
ATLAS 2AS CENTAUR R/B 3.8 04:57:57 10° WNW 05:04:37 36° N 05:10:58 10° ENE
Cosmos 1805 3.5 05:04:09 10° NNW 05:07:46 43° W 05:11:22 10° SSW
Cosmos 1709 Rocket 4.2 05:02:46 10° SSW 05:09:01 57° WNW 05:15:17 10° N
Cosmos 1140 Rocket 3.6 05:06:46 10° NNW 05:11:56 60° WSW 05:17:05 10° S
